sat.trackr.live / text

‹ back to catalog

STARLINK-30957

NORAD 58453 · 2023-183S

PAYLOAD ACTIVE UNKNOWN

§ Identity

Operator
Country
US
Launch date
2023-11-28
Launch site
AFETR
Launch vehicle
Mass (kg)
RCS (m²)

Purposes: comms

External: N2YO · Heavens-Above · Gunter

§ Orbital elements

Epoch: 2026-05-24T17:13:58.852992Z

Period
94.27 min
Inclination
43.0040°
Eccentricity
0.0001827
Mean motion
15.27577039 rev/d
Perigee alt
481.8 km
Apogee alt
484.3 km
Semi-major
6,861.2 km
B*
-8.1766e-5
RAAN
332.1021°
Arg perigee
272.2012°
Mean anomaly
87.8630°
Rev number
13,836

§ Raw data

STARLINK-309571 58453U 23183S   26144.71804228 -.00002511  00000+0 -81766-4 0  99932 58453  43.0040 332.1021 0001827 272.2012  87.8630 15.27577039138363

JSON: /api/v1/satellites/58453 · /tle

For live sub-satellite position, see the globe view (requires WebGL).

§ Visibility from observer

Set your observer location to see the next 7 days of passes ≥ 10°. The values pass through the URL so the page stays shareable.

No JS? Fill the form by hand. The geolocation button needs JavaScript.